軌道要素
Epoch 1989 Nov. 10.0 TT = JDT 2447840.5
T 1989 Oct. 26.72553 TT MPC
q 5.7717726 (2000.0) P Q
n 0.06637084 Peri. 49.87037 +0.99139205 -0.05373159
a 6.0415890 Node 312.84784 -0.01238501 +0.86933190
e 0.0446599 Incl. 9.37217 +0.13033961 +0.49129925
P 14.9
From 16492 observations 1902 Mar. 5-2012 May 3, mean residual 0".6.
|